Weather History for Beaumont, TX

Change the Weather History Date:

Friday, October 5, 2012

  Actual Average Record
Temperature  
Mean Temperature 75 °F 74 °F  
Max Temperature 86 °F 84 °F 95 °F (1925)
Min Temperature 64 °F 64 °F 48 °F (1961)
Degree Days  
Heating Degree Days 0 0  
Month to date heating degree days 0 0  
Since 1 July heating degree days 0 1  
Cooling Degree Days 10 9  
Month to date cooling degree days 36 47  
Year to date cooling degree days 2910 2633  
Growing Degree Days 25 (Base 50)    
Moisture  
Dew Point 68 °F    
Average Humidity 78    
Maximum Humidity 100    
Minimum Humidity 55    
Precipitation  
Precipitation 0.00 in 0.19 in 2.64 in (2009)
Month to date precipitation 0.01 0.92  
Year to date precipitation 55.79 46.12  
Snow  
Snow 0.00 in 0.00 in 0.00 in ()
Month to date snowfall 0.0 0.0  
Since 1 July snowfall 0.0 0.0  
Since 1 September snowfall 0.0 0.0  
Snow Depth 0.00 in    
Sea Level Pressure  
Sea Level Pressure 30.07 in    
Wind  
Wind Speed 4 mph (SE)    
Max Wind Speed 10 mph    
Max Gust Speed 0 mph    
Visibility 8 miles    
Events      
T = Trace of Precipitation, MM = Missing Value Source: NWS Daily Summary

Daily Weather History Graph

Daily Weather History Graph

Search for Another Location

Airport:

Trip Planner

Search our weather history database for the weather conditions in past years. The results will help you decide how hot, cold, wet, or windy it might be!

Date:

Astronomy

Oct. 05, 2012 Rise Set
Actual Time 7:12 AM CDT 6:56 PM CDT
Civil Twilight 6:48 AM CDT 7:19 PM CDT
Nautical Twilight 6:20 AM CDT 7:47 PM CDT
Astronomical Twilight 5:52 AM CDT 8:15 PM CDT
Moon 10:40 PM CDT (10/5) 12:00 PM CDT (10/5)
Length of Visible Light 12h 31m
Length of Day
11h 44m
Waning Gibbous, 74% of the Moon is Illuminated
Oct 5
Waning Gibbous
Oct 8
Last Quarter
Oct 15
New
Oct 21
First Quarter
Oct 29
Full

Hourly Weather History & Observations

Time (CDT) Temp. Heat Index Dew Point Humidity Pressure Visibility Wind Dir Wind Speed Gust Speed Precip Events Conditions
12:53 AM 64.9 °F - 64.0 °F 97% 30.12 in 10.0 mi Calm Calm - N/A   Clear
1:53 AM 64.9 °F - 64.0 °F 97% 30.11 in 10.0 mi Calm Calm - N/A   Clear
2:53 AM 64.4 °F - 62.6 °F 94% 30.10 in 10.0 mi Calm Calm - N/A   Clear
3:53 AM 64.9 °F - 64.0 °F 97% 30.09 in 10.0 mi Calm Calm - N/A   Clear
4:53 AM 64.9 °F - 63.0 °F 93% 30.10 in 10.0 mi Calm Calm - N/A   Clear
5:53 AM 64.9 °F - 64.0 °F 97% 30.10 in 10.0 mi NNE 3.5 mph - N/A   Clear
6:53 AM 69.1 °F - 69.1 °F 100% 30.11 in 7.0 mi NNE 3.5 mph - N/A   Clear
7:53 AM 68.0 °F - 68.0 °F 100% 30.12 in 4.0 mi Calm Calm - N/A   Partly Cloudy
8:19 AM 71.6 °F - 69.8 °F 94% 30.12 in 1.5 mi East 4.6 mph - N/A   Partly Cloudy
8:30 AM 71.6 °F - 71.6 °F 100% 30.12 in 1.5 mi East 5.8 mph - N/A   Mostly Cloudy
8:43 AM 73.4 °F - 71.6 °F 94% 30.12 in 2.0 mi East 3.5 mph - N/A   Mostly Cloudy
8:53 AM 73.9 °F - 72.0 °F 93% 30.12 in 3.0 mi ENE 4.6 mph - N/A   Mostly Cloudy
9:01 AM 75.2 °F - 71.6 °F 89% 30.12 in 5.0 mi East 4.6 mph - N/A   Partly Cloudy
9:53 AM 78.1 °F - 71.1 °F 79% 30.13 in 10.0 mi East 5.8 mph - N/A   Partly Cloudy
10:53 AM 80.6 °F 84.6 °F 71.6 °F 74% 30.12 in 10.0 mi Variable 5.8 mph - N/A   Partly Cloudy
11:53 AM 82.9 °F 87.0 °F 70.0 °F 65% 30.12 in 10.0 mi ESE 6.9 mph - N/A   Partly Cloudy
12:53 PM 82.0 °F 85.5 °F 69.1 °F 65% 30.09 in 10.0 mi SE 6.9 mph - N/A   Mostly Cloudy
1:53 PM 84.9 °F 88.2 °F 68.0 °F 57% 30.06 in 10.0 mi SSE 8.1 mph - 0.01 in   Mostly Cloudy
2:53 PM 84.0 °F 86.3 °F 66.0 °F 55% 30.04 in 10.0 mi SW 5.8 mph - N/A   Overcast
3:53 PM 84.0 °F 86.5 °F 66.9 °F 56% 30.01 in 10.0 mi SW 8.1 mph - N/A   Mostly Cloudy
4:53 PM 82.9 °F 85.4 °F 66.9 °F 58% 30.00 in 10.0 mi South 8.1 mph - N/A   Scattered Clouds
5:53 PM 81.0 °F 83.8 °F 68.0 °F 65% 30.00 in 10.0 mi South 6.9 mph - N/A   Clear
6:53 PM 75.9 °F - 68.0 °F 76% 30.00 in 10.0 mi SSW 5.8 mph - N/A   Clear
7:53 PM 72.0 °F - 68.0 °F 87% 30.00 in 10.0 mi South 4.6 mph - N/A   Clear
8:53 PM 70.0 °F - 68.0 °F 93% 30.00 in 10.0 mi South 3.5 mph - N/A   Clear
9:53 PM 69.1 °F - 66.9 °F 93% 30.01 in 10.0 mi SSW 3.5 mph - N/A   Clear
10:53 PM 68.0 °F - 66.9 °F 96% 30.01 in 8.0 mi Calm Calm - N/A   Clear
11:53 PM 66.0 °F - 66.0 °F 100% 30.01 in 2.5 mi Calm Calm - N/A   Clear